Погода в Новой Галещине

Украина / Полтавская область     49°10′04″N   33°45′18″E
темп.,
°C
ветер,
м/с
пор.,
м/с
влажн.,
%
обл.,
%
осадки,
мм/ч
давл.,
гПа
погр.,
м
25 июля, вс
вс2500:00+18ссз22643 0.0 101721
03:00+17всв22660 0.0 101711
06:00+17ссв11720 0.0 101811
09:00+24ссв22540 0.0 1019438
12:00+28св11380 0.0 10192110
15:00+29всв233391 0.0 10182862
18:00+25св35509 0.0 1018229
21:00+21св336394 0.0 101941
26 июля, пн
пн2600:00+21св236466 0.0 102043
03:00+18в2270100 0.0 102111
06:00+19вюв355992 0.0 1021119
09:00+24юв34446 0.0 1022417
12:00+29вюв33334 0.0 10211929
15:00+30всв233188 0.0 10202556
18:00+27св114099 0.0 101912
21:00+24ссв224374 0.0 102017
27 июля, вт
вт2700:00+21в445354 0.0 102151
03:00+19вюв46585 0.0 102187
06:00+18в34590 0.0 102148
09:00+25в34410 0.0 1021379
12:00+30в34290 0.0 10202072
15:00+32ююв12241 0.0 10193120
18:00+31ю32285 0.0 10182319
21:00+24ю33445 0.0 101823
28 июля, ср
ср2800:00+22ю22485 0.0 101816
03:00+21ююв33565 0.0 101836
06:00+20ююв356357 0.0 101872
09:00+27ю4647100 0.0 1017483
12:00+32ююз673469 0.0 10162222
15:00+30зюз7940100 0.0 1015963
18:00+32зюз57345 0.0 10132236
21:00+24ю446169 0.8 101239
29 июля, чт
чт2900:00+20з3784100 2.4 1013140
03:00+19юз488583 2.8 1012171
06:00+18юз38875 0.0 1011167
09:00+24зюз3470100 0.1 1011368
12:00+30зюз34497 0.2 1010937
15:00+33з57357 0.2 10091918
18:00+25ссв456718 0.4 100868
21:00+22вюв228187 3.4 100837